Regional Weather Roundup
Issued by NWS

Home | Current Version | Previous Version | Text Only | Print | Product List | Glossary Off
Versions: 1 2 3 4 5 6 7 8 9 10 11 12 13 14 15 16 17 18 19 20 21 22 23 24 25 26 27 28 29 30 31 32 33 34 35 36 37 38 39 40 41 42 43 44 45 46 47 48 49 50

000
ASUS44 KMEG 242000
RWRTN
TENNESSEE HOURLY STATE WEATHER ROUNDUP
NATIONAL WEATHER SERVICE MEMPHIS TN
300 PM CDT THU APR 24 2014

TNZ002-004-019-021-049-052-054-088>092-242100-
WEST TENNESSEE

CITY           SKY/WX    TMP DP  RH WIND       PRES   REMARKS
MEMPHIS INTL   PTSUNNY   81  55  40 SW12G23   29.81F
NWS MEMPHIS      N/A     81 N/A N/A MISG        N/A
JACKSON        PTSUNNY   80  51  36 SW15      29.84F
DYERSBURG      PTSUNNY   79  48  34 S14G20    29.82F
UNION CITY     SUNNY     77  50  38 S8        29.81F
LEXINGTON      SUNNY     79  46  31 S10       29.85F
$$

TNZ008-025-027-028-033-062-065-066-242100-
NORTH MIDDLE TENNESSEE

CITY           SKY/WX    TMP DP  RH WIND       PRES   REMARKS
NASHVILLE      PTSUNNY   80  40  23 SW12G22   29.88F
CLARKSVILLE    PTSUNNY   76  42  29 S13G18    29.85F
COOKEVILLE     SUNNY     79  37  22 SW9       29.91F
CROSSVILLE     PTSUNNY   73  32  22 S8        29.95F
$$

TNZ061-075-076-078-094-096-097-242100-
SOUTH MIDDLE TENNESSEE

CITY           SKY/WX    TMP DP  RH WIND       PRES   REMARKS
TULLAHOMA      SUNNY     79  45  29 S9        29.92F
WINCHESTER     SUNNY     79  46  31 W12       29.91F
MCMINNVILLE    SUNNY     79  43  27 SW8       29.91F
COLUMBIA       SUNNY     79  59  50 S13       29.86F
$$

TNZ017-018-042-046-047-242100-
NORTHEAST TENNESSEE

CITY           SKY/WX    TMP DP  RH WIND       PRES   REMARKS
TRI CITIES     MOSUNNY   77  25  14 SW10      29.94F
ELIZABETHTON   CLEAR     75  30  19 CALM      29.93F
$$

TNZ012-013-036-069-073-074-242100-
CENTRAL EAST TENNESSEE

CITY           SKY/WX    TMP DP  RH WIND       PRES   REMARKS
KNOXVILLE      PTSUNNY   76  40  27 NW7       29.92F
OAK RIDGE      PTSUNNY   77  36  22 VRB6      29.94F
$$

TNZ083-085-099-242100-
SOUTHEAST TENNESSEE

CITY           SKY/WX    TMP DP  RH WIND       PRES   REMARKS
CHATTANOOGA    MOSUNNY   79  38  22 S8        29.93F
$$

SKY/WX REPORTED AS FAIR MEANS FEW OR NO CLOUDS BELOW
12 THOUSAND FEET.




USA.gov is the U.S. government's official web portal to all federal, state and local government web resources and services.